User: anonymous   Login
Location: Unspecified
(0.0000°N, 0.0000°E)
Time: 23:38:28
(UTC+01:00)
Language:

Cosmos 1263 Rocket - Orbit

View from above orbital plane
View from above orbital plane
View from above satellite
View from above satellite

Ground track
Ground track

The orbit data is extracted from the following two-line orbital elements,

1 12389U 81033B   15030.71079682  .00070723  14789-6  62211-3 0  2393
2 12389 082.8632 244.9841 0140929 005.7455 041.1933 15.56678242744795
Epoch (UTC): 30 January 2015 17:03:32
Eccentricity: 0.0140929
inclination: 82.8632°
perigee height: 302 km
apogee height: 493 km
right ascension of ascending node: 244.9841°
argument of perigee: 5.7455°
revolutions per day: 15.56678242
mean anomaly at epoch: 41.1933°
orbit number at epoch: 74479

The dashed part of the orbit path shows where the satellite is in the earth's shadow,  

DLR